Orbital Elements at Epoch 2459000.5 (2020-May-31.0) TDB
Reference: JPL 19 (heliocentric ecliptic J2000)
Element | Value | Uncertainty (1-sigma) | Units |
e | .2162008903974024 | 6.719e-08 | |
a | 2.570121907420451 | 2.9546e-08 | au |
q | 2.014459262606279 | 1.8071e-07 | au |
i | 3.0229732661894 | 1.0445e-05 | deg |
node | 349.2250064176298 | 0.00013889 | deg |
peri | 332.7635391484498 | 0.00014148 | deg |
M | 268.3452134283201 | 2.6481e-05 | deg |
tp | 2459383.661320947607 (2021-Jun-18.16132095) | 0.00011064 | TDB |
period | 1504.974052099962 4.12 | 2.5951e-05 7.105e-08 | d yr |
n | .2392067820024371 | 4.1248e-09 | deg/d |
Q | 3.125784552234623 | 3.5934e-08 | au |
|
| | Orbit Determination Parameters
Additional Information
|